This demonstration page uses our WeatherBlox Daily Observations layout. Learn more.

Left ArrowRight Arrow

Hourly Observations for October 14, 2016

Temp ( °F °C ) Dew Point ( °F °C ) Humidity (%) Winds ( mph kmh ) Pressure ( in mb ) Visibility ( mi km ) Precip ( " mm )
12:15 am 00:15 Clear 45 7 36 2 71 71 S 9 15 30.09 1019 10 16 0.00 0.00
12:35 am 00:35 Clear 45 7 36 2 71 71 SSE 9 15 30.09 1019 10 16 0.00 0.00
12:55 am 00:55 Clear 45 7 36 2 71 71 S 10 17 30.09 1019 10 16 0.00 0.00
1:15 am 01:15 Clear 43 6 36 2 76 76 S 9 15 30.09 1019 10 16 0.00 0.00
1:35 am 01:35 Clear 43 6 36 2 76 76 S 8 13 30.09 1019 10 16 0.00 0.00
1:55 am 01:55 Clear 41 5 34 1 76 76 S 9 15 30.12 1020 10 16 0.00 0.00
2:15 am 02:15 Clear 41 5 34 1 76 76 S 12 19 30.12 1020 10 16 0.00 0.00
2:35 am 02:35 Clear 41 5 34 1 76 76 S 9 15 30.12 1020 10 16 0.00 0.00
2:55 am 02:55 Clear 41 5 36 2 81 81 S 9 15 30.12 1020 10 16 0.00 0.00
3:15 am 03:15 Clear 39 4 34 1 81 81 S 9 15 30.09 1019 10 16 0.00 0.00
3:35 am 03:35 Clear 39 4 36 2 87 87 S 8 13 30.09 1019 10 16 0.00 0.00
3:55 am 03:55 Clear 39 4 36 2 87 87 S 8 13 30.09 1019 10 16 0.00 0.00
4:15 am 04:15 Clear 39 4 34 1 81 81 S 8 13 30.09 1019 10 16 0.00 0.00
4:35 am 04:35 Clear 41 5 36 2 81 81 S 9 15 30.03 1017 10 16 0.00 0.00
4:55 am 04:55 Clear 41 5 36 2 81 81 S 10 17 30.03 1017 10 16 0.00 0.00
5:15 am 05:15 Clear 41 5 36 2 81 81 S 10 17 30.03 1017 10 16 0.00 0.00
5:35 am 05:35 Clear 39 4 36 2 87 87 S 10 17 30.06 1018 10 16 0.00 0.00
5:55 am 05:55 Clear 41 5 36 2 81 81 S 10 17 30.03 1017 10 16 0.00 0.00
6:15 am 06:15 Clear 41 5 36 2 81 81 S 12 19 30.00 1016 10 16 0.00 0.00
6:35 am 06:35 Clear 41 5 36 2 81 81 S 12 19 30.03 1017 10 16 0.00 0.00
6:55 am 06:55 Clear 41 5 36 2 81 81 S 13 20 30.00 1016 10 16 0.00 0.00
7:15 am 07:15 Clear 41 5 36 2 81 81 S 13 20 30.00 1016 10 16 0.00 0.00
7:35 am 07:35 Clear 41 5 36 2 81 81 S 14 22 30.00 1016 10 16 0.00 0.00
7:55 am 07:55 Sunny 39 4 36 2 87 87 S 13 20 30.03 1017 10 16 0.00 0.00
8:15 am 08:15 Sunny 41 5 37 3 87 87 S 12 19 30.00 1016 10 16 0.00 0.00
8:35 am 08:35 Sunny 43 6 37 3 81 81 S 14 22 29.97 1015 10 16 0.00 0.00
8:55 am 08:55 Sunny 45 7 39 4 81 81 S 15 24 30.00 1016 10 16 0.00 0.00
9:15 am 09:15 Sunny 46 8 39 4 76 76 S 16 26 29.97 1015 10 16 0.00 0.00
9:35 am 09:35 Sunny 46 8 41 5 82 82 S 14 22 29.97 1015 10 16 0.00 0.00
9:55 am 09:55 Sunny 48 9 43 6 82 82 S 18 30 29.97 1015 10 16 0.00 0.00
10:15 am 10:15 Mostly Sunny 50 10 43 6 76 76 SSW 18 30 29.97 1015 10 16 0.00 0.00
10:35 am 10:35 Mostly Cloudy 48 9 43 6 82 82 S 16 26 29.97 1015 10 16 0.00 0.00
10:55 am 10:55 Cloudy 50 10 43 6 76 76 S 17 28 29.97 1015 10 16 0.00 0.00
11:15 am 11:15 Cloudy 50 10 43 6 76 76 S 15 24 29.94 1014 10 16 0.00 0.00
11:35 am 11:35 Cloudy 52 11 45 7 77 77 S 17 28 29.94 1014 10 16 0.00 0.00
11:55 am 11:55 Cloudy 54 12 45 7 72 72 S 17 28 29.91 1013 10 16 0.00 0.00
12:15 pm 12:15 Cloudy 55 13 46 8 72 72 S 20 31 29.91 1013 10 16 0.00 0.00
12:35 pm 12:35 Partly Cloudy 57 14 46 8 67 67 S 21 33 29.88 1012 10 16 0.00 0.00
12:55 pm 12:55 Sunny 59 15 48 9 68 68 S 21 33 29.85 1011 10 16 0.00 0.00
1:15 pm 13:15 Sunny 63 17 48 9 59 59 S 20 31 29.85 1011 10 16 0.00 0.00
1:35 pm 13:35 Sunny 63 17 48 9 59 59 S 17 28 29.83 1010 10 16 0.00 0.00
1:55 pm 13:55 Sunny 64 18 50 10 60 60 S 16 26 29.83 1010 10 16 0.00 0.00
2:15 pm 14:15 Sunny 66 19 50 10 56 56 S 17 28 29.80 1009 10 16 0.00 0.00
2:35 pm 14:35 Sunny 66 19 50 10 56 56 SSW 20 31 29.80 1009 10 16 0.00 0.00
2:55 pm 14:55 Sunny 66 19 50 10 56 56 S 15 24 29.77 1008 10 16 0.00 0.00
3:15 pm 15:15 Sunny 70 21 52 11 53 53 S 17 28 29.77 1008 10 16 0.00 0.00
3:35 pm 15:35 Sunny 72 22 52 11 50 50 S 20 31 29.71 1006 10 16 0.00 0.00
3:55 pm 15:55 Sunny 72 22 52 11 50 50 S 18 30 29.71 1006 10 16 0.00 0.00
4:15 pm 16:15 Sunny 73 23 52 11 47 47 S 20 31 29.71 1006 10 16 0.00 0.00
4:35 pm 16:35 Sunny 72 22 50 10 47 47 S 25 41 29.71 1006 10 16 0.00 0.00
4:55 pm 16:55 Sunny 72 22 52 11 50 50 S 21 33 29.71 1006 10 16 0.00 0.00
5:15 pm 17:15 Sunny 72 22 52 11 50 50 S 20 31 29.68 1005 10 16 0.00 0.00
5:35 pm 17:35 Sunny 72 22 52 11 50 50 S 18 30 29.71 1006 10 16 0.00 0.00
5:55 pm 17:55 Sunny 72 22 52 11 50 50 S 16 26 29.68 1005 10 16 0.00 0.00
6:15 pm 18:15 Sunny 70 21 52 11 53 53 S 14 22 29.71 1006 10 16 0.00 0.00
6:35 pm 18:35 Sunny 68 20 52 11 56 56 SSE 12 19 29.71 1006 10 16 0.00 0.00
6:55 pm 18:55 Sunny 66 19 54 12 64 64 SSE 12 19 29.71 1006 10 16 0.00 0.00
7:15 pm 19:15 Clear 66 19 52 11 60 60 S 9 15 29.71 1006 10 16 0.00 0.00
7:35 pm 19:35 Clear 64 18 52 11 64 64 SSE 12 19 29.71 1006 10 16 0.00 0.00
7:55 pm 19:55 Clear 64 18 54 12 68 68 SSE 12 19 29.71 1006 10 16 0.00 0.00
8:15 pm 20:15 Clear 64 18 54 12 68 68 SSE 13 20 29.71 1006 10 16 0.00 0.00
8:35 pm 20:35 Clear 64 18 54 12 68 68 SSE 10 17 29.71 1006 10 16 0.00 0.00
8:55 pm 20:55 Clear 64 18 54 12 68 68 SSE 12 19 29.71 1006 10 16 0.00 0.00
9:15 pm 21:15 Clear 64 18 54 12 68 68 S 16 26 29.71 1006 10 16 0.00 0.00
9:35 pm 21:35 Clear 64 18 54 12 68 68 S 16 26 29.71 1006 10 16 0.00 0.00
9:55 pm 21:55 Clear 64 18 54 12 68 68 S 17 28 29.71 1006 10 16 0.00 0.00
10:15 pm 22:15 Clear 64 18 54 12 68 68 S 21 33 29.68 1005 10 16 0.00 0.00
10:35 pm 22:35 Clear 64 18 54 12 68 68 S 18 30 29.68 1005 10 16 0.00 0.00
10:55 pm 22:55 Clear 64 18 55 13 73 73 S 18 30 29.68 1005 10 16 0.00 0.00
11:15 pm 23:15 Clear 64 18 55 13 73 73 S 18 30 29.68 1005 10 16 0.00 0.00
11:35 pm 23:35 Clear 63 17 55 13 77 77 S 18 30 29.68 1005 10 16 0.00 0.00
11:55 pm 23:55 Clear 63 17 55 13 77 77 S 20 31 29.68 1005 10 16 0.00 0.00

Powered by AerisWeather